DW9987 Weather Reports


time (UTC)temp
C
wind
direction
speed
KPH
gust
KPH
rain 1hr
cm
rain 24hr
cm
rain mn
cm
humidity
%
barometer
mb
20260902204557 34 186 4.8 16.1 0.00 0.00 0.00 57 1011.9
20260902203056 34 202 8.0 19.3 0.00 0.00 0.00 57 1012.0
20260902201555 35 238 1.6 11.3 0.00 0.00 0.00 56 1012.0
20260902200054 35 198 1.6 17.7 0.00 0.00 0.00 57 1012.3
20260902194557 34 165 1.6 11.3 0.00 0.00 0.00 57 1012.3
20260902193049 34 273 3.2 12.9 0.00 0.00 0.00 56 1012.4
20260902191546 34 360 1.6 8.0 0.00 0.00 0.00 57 1012.5
20260902190043 34 271 0.0 11.3 0.00 0.00 0.00 59 1012.5
20260902184552 33 236 3.2 17.7 0.00 0.00 0.00 56 1012.6
20260902183038 33 193 1.6 9.7 0.00 0.00 0.00 60 1012.8
20260902181542 33 180 1.6 8.0 0.00 0.00 0.00 62 1012.8
20260902180035 33 213 1.6 12.9 0.00 0.00 0.00 62 1013.0
20260902174531 32 213 1.6 14.5 0.00 0.00 0.00 63 1013.0
20260902173029 32 199 1.6 11.3 0.00 0.00 0.00 64 1013.0
20260902171528 32 237 0.0 11.3 0.00 0.00 0.00 67 1013.2
20260902170023 31 225 0.0 12.9 0.00 0.00 0.00 67 1013.2
20260902164525 31 194 3.2 11.3 0.00 0.00 0.00 67 1013.2
20260902163020 31 209 1.6 9.7 0.00 0.00 0.00 67 1013.4
20260902161521 30 150 0.0 4.8 0.00 0.00 0.00 69 1013.6
20260902160011 30 349 1.6 8.0 0.00 0.00 0.00 69 1013.8
20260902154520 30 215 0.0 4.8 0.00 0.00 0.00 71 1013.8
20260902151544 28 350 0.0 4.8 0.00 0.00 0.00 73 1013.9
20260902150043 28 23 4.8 12.9 0.00 0.00 0.00 72 1014.2
20260902144540 28 181 3.2 16.1 0.00 0.00 0.00 72 1013.4
20260902143040 27 222 3.2 8.0 0.00 0.00 0.00 74 1013.3
20260902141537 27 258 1.6 9.7 0.00 0.00 0.00 75 1013.5
20260902140035 27 178 3.2 9.7 0.00 0.00 0.00 75 1013.6
20260902134538 27 194 1.6 8.0 0.00 0.00 0.00 75 1013.7
20260902133035 26 227 3.2 8.0 0.00 0.00 0.00 76 1013.6
20260902131533 26 256 1.6 8.0 0.00 0.00 0.00 80 1013.7
20260902130032 25 244 0.0 4.8 0.00 0.00 0.00 83 1013.9
20260902124532 25 196 0.0 9.7 0.00 0.00 0.00 83 1013.8
20260902123033 25 177 0.0 8.0 0.00 0.00 0.00 81 1013.8
20260902121530 25 207 3.2 8.0 0.00 0.00 0.00 81 1013.7
20260902120033 25 196 1.6 6.4 0.00 0.00 0.00 81 1013.6
20260902114537 25 225 0.0 6.4 0.00 0.03 0.00 81 1013.6
20260902113035 24 257 0.0 3.2 0.00 0.03 0.00 82 1013.5
20260902111528 24 257 0.0 3.2 0.00 0.03 0.00 82 1013.7
20260902110027 24 257 0.0 3.2 0.00 0.03 0.00 81 1013.8
20260902104526 25 242 0.0 6.4 0.00 0.03 0.00 81 1013.8
20260902103028 25 245 0.0 6.4 0.00 0.03 0.00 80 1013.8
20260902101526 25 215 1.6 4.8 0.00 0.03 0.00 79 1013.6
20260902100024 25 234 0.0 4.8 0.00 0.03 0.00 78 1013.6
20260902094519 25 217 0.0 3.2 0.00 0.05 0.00 78 1013.7
20260902093016 26 205 0.0 4.8 0.00 0.05 0.00 76 1013.6
20260902091514 26 197 1.6 6.4 0.00 0.05 0.00 75 1013.4
20260902090011 26 227 1.6 8.0 0.00 0.05 0.00 74 1013.3
20260902084513 26 219 0.0 6.4 0.00 0.05 0.00 73 1013.3
20260902083010 26 248 0.0 6.4 0.00 0.05 0.00 73 1013.2
20260902081508 26 202 1.6 6.4 0.00 0.05 0.00 73 1013.1
20260902080010 26 211 0.0 8.0 0.00 0.05 0.00 74 1013.1
20260902074506 26 222 1.6 6.4 0.00 0.05 0.00 74 1013.1
20260902073005 27 226 1.6 8.0 0.00 0.05 0.00 74 1013.0
20260902071504 27 205 1.6 8.0 0.00 0.05 0.00 75 1012.9
20260902070004 27 221 0.0 3.2 0.00 0.05 0.00 75 1013.0
20260902064502 27 225 0.0 4.8 0.00 0.05 0.00 75 1013.2
20260902063102 27 236 0.0 8.0 0.00 0.05 0.00 76 1013.2
20260902060108 26 206 1.6 8.0 0.00 0.05 0.00 78 1013.2
20260902054557 27 215 1.6 9.7 0.00 0.05 0.00 77 1013.2
20260902053102 27 202 1.6 6.4 0.00 0.05 0.00 75 1013.2
20260902051553 27 224 0.0 6.4 0.00 0.05 0.00 75 1013.3
20260902050104 27 191 1.6 6.4 0.00 0.05 0.00 75 1013.2
20260902044552 27 202 3.2 11.3 0.00 0.05 0.05 75 1013.3
20260902043052 28 212 3.2 11.3 0.00 0.05 0.05 74 1013.2
20260902041550 27 165 3.2 11.3 0.00 0.05 0.05 75 1013.2
20260902040049 27 222 1.6 9.7 0.00 0.05 0.05 75 1013.3
20260902034549 28 202 1.6 9.7 0.00 0.05 0.05 75 1013.3
20260902033050 28 200 3.2 9.7 0.00 0.05 0.05 75 1013.4
20260902031547 28 205 3.2 9.7 0.00 0.05 0.05 74 1013.5
20260902030050 28 192 3.2 9.7 0.00 0.05 0.05 74 1013.5
20260902024547 28 211 3.2 8.0 0.00 0.05 0.05 75 1013.4
20260902023051 28 242 1.6 6.4 0.00 0.05 0.05 75 1013.4
20260902021546 28 207 0.0 6.4 0.00 0.05 0.05 75 1013.4
20260902020045 28 187 1.6 9.7 0.00 0.05 0.05 75 1013.3
20260902014548 28 188 1.6 8.0 0.00 0.05 0.05 75 1013.1
20260902013047 28 212 1.6 6.4 0.00 0.05 0.05 74 1012.9
20260902011549 29 215 3.2 11.3 0.00 0.05 0.05 74 1012.8
20260902010050 29 192 3.2 11.3 0.00 0.05 0.05 75 1012.6
20260902004544 29 213 0.0 6.4 0.00 0.05 0.05 76 1012.5
20260902003043 29 218 3.2 6.4 0.00 0.05 0.05 75 1012.3
20260902001544 30 178 1.6 8.0 0.00 0.05 0.05 75 1012.4
20260902000046 30 201 0.0 4.8 0.00 0.05 0.05 76 1012.5
20260901234540 31 190 0.0 6.4 0.00 0.13 0.05 75 1012.6
20260901233039 31 223 1.6 6.4 0.00 0.13 0.05 73 1012.6
20260901231538 31 173 1.6 8.0 0.00 0.13 0.05 71 1012.8
20260901230037 32 198 3.2 9.7 0.00 0.13 0.05 70 1012.8
20260901224539 32 184 3.2 6.4 0.00 0.20 0.05 69 1012.7
20260901223037 32 182 1.6 8.0 0.00 0.20 0.05 71 1012.7
20260901221547 33 210 0.0 6.4 0.00 0.20 0.05 69 1012.7
20260901220037 33 182 3.2 12.9 0.00 0.20 0.05 69 1012.7
20260901214547 32 169 1.6 6.4 0.00 0.20 0.05 67 1012.7
20260901213033 33 169 3.2 9.7 0.00 0.20 0.05 70 1012.7
20260901211533 33 199 1.6 8.0 0.00 0.20 0.05 68 1012.8
20260901210032 33 216 0.0 8.0 0.00 0.20 0.05 68 1012.9